Caslav, Czech Republic

12:32 AM CEST on March 27, 2017 (GMT +0200)
Caslav

Weather History for LKCV - September, 2012

Change the Weather History Date:

Sunday, September 30, 2012

  Actual Average Record
Temperature  
Mean Temperature 54 °F -  
Max Temperature 62 °F - - ()
Min Temperature 46 °F - - ()
Degree Days  
Heating Degree Days 11    
Growing Degree Days 4 (Base 50)    
Moisture  
Dew Point 46 °F    
Average Humidity 77    
Maximum Humidity 94    
Minimum Humidity 42    
Precipitation  
Precipitation 0.00 in - - ()
Sea Level Pressure  
Sea Level Pressure 30.18 in    
Wind  
Wind Speed 3 mph ()    
Max Wind Speed 9 mph    
Max Gust Speed -    
Visibility 6.2 miles    
Events Fog    
T = Trace of Precipitation, MM = Missing Value Source: Averaged Metar Reports

Daily Weather History Graph

Daily Weather History Graph

Search for Another Location

Airport or City:

Trip Planner

Search our weather history database for the weather conditions in past years. The results will help you decide how hot, cold, wet, or windy it might be!

Date:

Astronomy

Sep. 30, 2012 Rise Set
Actual Time 6:57 AM CEST 6:38 PM CEST
Civil Twilight 6:25 AM CEST 7:10 PM CEST
Nautical Twilight 5:47 AM CEST 7:48 PM CEST
Astronomical Twilight 5:09 AM CEST 8:26 PM CEST
Moon 6:24 PM CEST (9/30) 7:17 AM CEST (9/30)
Length of Visible Light 12h 45m
Length of Day
11h 41m
Full, 100% of the Moon is Illuminated
Sep 30
Full
Oct 8
Last Quarter
Oct 15
New
Oct 22
First Quarter
Oct 29
Full

Hourly Weather History & Observations

Time (CEST) Temp. Dew Point Humidity Pressure Visibility Wind Dir Wind Speed Gust Speed Precip Events Conditions
12:00 AM 55.4 °F 51.8 °F 88% 30.06 in - West 5.8 mph - N/A   Clear
1:00 AM 55.4 °F 51.8 °F 88% 30.09 in 6.2 mi West 4.6 mph - N/A   Mostly Cloudy
2:00 AM 51.8 °F 50.0 °F 94% 30.09 in - West 9.2 mph - N/A   Clear
3:00 AM 50.0 °F 48.2 °F 94% 30.12 in - West 6.9 mph - N/A   Clear
4:00 AM 48.2 °F 46.4 °F 93% 30.15 in - West 6.9 mph - N/A   Clear
5:00 AM 48.2 °F 46.4 °F 93% 30.15 in - Calm Calm - N/A   Clear
6:00 AM 46.4 °F 44.6 °F 93% 30.18 in - Variable 2.3 mph - N/A   Clear
7:00 AM 46.4 °F 44.6 °F 93% 30.18 in 6.2 mi Calm Calm - N/A Fog Shallow Fog
8:00 AM 46.4 °F 44.6 °F 93% 30.18 in - SSE 2.3 mph - N/A   Clear
9:00 AM 51.8 °F 48.2 °F 88% 30.21 in - Variable 1.2 mph - N/A   Clear
10:00 AM 55.4 °F 46.4 °F 72% 30.24 in - Calm Calm - N/A   Clear
11:00 AM 57.2 °F 46.4 °F 67% 30.24 in 6.2 mi Variable 2.3 mph - N/A   Scattered Clouds
12:00 PM 57.2 °F 46.4 °F 67% 30.24 in 6.2 mi Variable 3.5 mph - N/A   Scattered Clouds
1:00 PM 60.8 °F 46.4 °F 59% 30.24 in 6.2 mi NNW 3.5 mph - N/A   Scattered Clouds
2:00 PM 60.8 °F 44.6 °F 55% 30.24 in 6.2 mi Variable 1.2 mph - N/A   Scattered Clouds
3:00 PM 60.8 °F 44.6 °F 55% 30.21 in 6.2 mi Variable 2.3 mph - N/A   Scattered Clouds
4:00 PM 60.8 °F 44.6 °F 55% 30.21 in 6.2 mi Calm Calm - N/A   Scattered Clouds
5:00 PM 62.6 °F 39.2 °F 42% 30.18 in 6.2 mi Variable 2.3 mph - N/A   Scattered Clouds
6:00 PM 60.8 °F 42.8 °F 52% 30.18 in - Variable 1.2 mph - N/A   Clear
7:00 PM 57.2 °F 46.4 °F 67% 30.18 in - Variable 2.3 mph - N/A   Clear
8:00 PM 53.6 °F 46.4 °F 77% 30.18 in - ENE 3.5 mph - N/A   Clear
9:00 PM 50.0 °F 46.4 °F 87% 30.18 in - South 2.3 mph - N/A   Clear
10:00 PM 48.2 °F 44.6 °F 87% 30.18 in - SSW 1.2 mph - N/A   Clear
11:00 PM 46.4 °F 44.6 °F 93% 30.18 in - SSW 2.3 mph - N/A   Clear